Weather History for KTEB - September, 2012

Change the Weather History Date:

Sunday, September 30, 2012

  Actual Average Record
Temperature  
Mean Temperature 62 °F -  
Max Temperature 70 °F 69 °F 82 °F (2007)
Min Temperature 55 °F 48 °F 39 °F (1991)
Degree Days  
Heating Degree Days 4    
Growing Degree Days 12 (Base 50)    
Moisture  
Dew Point 50 °F    
Average Humidity 73    
Maximum Humidity 88    
Minimum Humidity 45    
Precipitation  
Precipitation 0.13 in - - ()
Sea Level Pressure  
Sea Level Pressure 29.82 in    
Wind  
Wind Speed 4 mph (WNW)    
Max Wind Speed 10 mph    
Max Gust Speed -    
Visibility 10 miles    
Events      
Averages and records for this station are not official NWS values.
T = Trace of Precipitation, MM = Missing Value Source: NWS Daily Summary

Daily Weather History Graph

Daily Weather History Graph

Search for Another Location

Airport or City:

Trip Planner

Search our weather history database for the weather conditions in past years. The results will help you decide how hot, cold, wet, or windy it might be!

Date:

Astronomy

Sep. 30, 2012 Rise Set
Actual Time 6:52 AM EDT 6:39 PM EDT
Civil Twilight 6:24 AM EDT 7:06 PM EDT
Nautical Twilight 5:53 AM EDT 7:38 PM EDT
Astronomical Twilight 5:20 AM EDT 8:10 PM EDT
Moon 6:40 PM EDT (9/30) 7:20 AM EDT (9/30)
Length of Visible Light 12h 41m
Length of Day
11h 46m
Full, 100% of the Moon is Illuminated
Sep 30
Full
Oct 8
Last Quarter
Oct 15
New
Oct 21
First Quarter
Oct 29
Full

Hourly Weather History & Observations

Time (EDT) Temp. Dew Point Humidity Pressure Visibility Wind Dir Wind Speed Gust Speed Precip Events Conditions
12:51 AM 57.9 °F 53.1 °F 84% 29.86 in 10.0 mi North 4.6 mph - N/A   Overcast
1:20 AM 57.2 °F 53.6 °F 88% 29.87 in 10.0 mi NNW 3.5 mph - N/A   Overcast
1:43 AM 57.2 °F 51.8 °F 82% 29.87 in 10.0 mi NNW 4.6 mph - N/A   Overcast
1:51 AM 57.0 °F 52.0 °F 83% 29.86 in 10.0 mi North 4.6 mph - N/A   Overcast
2:51 AM 55.9 °F 52.0 °F 87% 29.85 in 10.0 mi NNW 5.8 mph - N/A   Overcast
3:11 AM 55.4 °F 51.8 °F 88% 29.84 in 10.0 mi NNW 5.8 mph - N/A   Mostly Cloudy
3:51 AM 55.9 °F 52.0 °F 87% 29.84 in 10.0 mi Calm Calm - N/A   Overcast
4:27 AM 55.4 °F 51.8 °F 88% 29.84 in 10.0 mi NNW 4.6 mph - N/A   Overcast
4:51 AM 55.9 °F 52.0 °F 87% 29.85 in 10.0 mi NNW 4.6 mph - N/A   Overcast
5:51 AM 55.9 °F 52.0 °F 87% 29.85 in 10.0 mi NNW 4.6 mph - N/A   Scattered Clouds
6:20 AM 55.4 °F 51.8 °F 88% 29.84 in 10.0 mi North 3.5 mph - N/A   Mostly Cloudy
6:27 AM 55.4 °F 51.8 °F 88% 29.83 in 10.0 mi North 4.6 mph - N/A   Scattered Clouds
6:51 AM 55.0 °F 51.1 °F 86% 29.84 in 10.0 mi Calm Calm - N/A   Clear
7:49 AM 57.2 °F 53.6 °F 88% 29.85 in 10.0 mi Calm Calm - N/A   Mostly Cloudy
7:51 AM 57.0 °F 53.1 °F 87% 29.86 in 10.0 mi Calm Calm - N/A   Mostly Cloudy
8:19 AM 57.2 °F 51.8 °F 82% 29.85 in 10.0 mi NNW 4.6 mph - N/A   Scattered Clouds
8:51 AM 59.0 °F 52.0 °F 78% 29.84 in 10.0 mi NNW 3.5 mph - N/A   Clear
9:51 AM 62.6 °F 51.8 °F 68% 29.84 in 10.0 mi WNW 3.5 mph - N/A   Partly Cloudy
10:51 AM 64.9 °F 51.1 °F 61% 29.82 in 10.0 mi Variable 4.6 mph - N/A   Clear
11:51 AM 66.9 °F 48.9 °F 52% 29.79 in 10.0 mi Variable 3.5 mph - N/A   Partly Cloudy
12:51 PM 68.0 °F 46.0 °F 45% 29.79 in 10.0 mi WSW 4.6 mph - N/A   Scattered Clouds
1:51 PM 66.9 °F 45.0 °F 45% 29.78 in 10.0 mi WSW 10.4 mph - N/A   Overcast
2:51 PM 66.9 °F 45.0 °F 45% 29.77 in 10.0 mi SW 4.6 mph - N/A   Mostly Cloudy
3:51 PM 62.1 °F 50.0 °F 65% 29.78 in 10.0 mi West 6.9 mph - 0.13 in   Overcast
4:51 PM 63.0 °F 46.9 °F 56% 29.77 in 10.0 mi West 8.1 mph - 0.00 in   Scattered Clouds
5:51 PM 64.0 °F 46.0 °F 52% 29.76 in 10.0 mi West 6.9 mph - N/A   Clear
6:51 PM 62.1 °F 46.0 °F 56% 29.77 in 10.0 mi SW 9.2 mph - N/A   Clear
7:51 PM 60.1 °F 48.0 °F 64% 29.78 in 10.0 mi WSW 6.9 mph - N/A   Clear
8:51 PM 59.0 °F 48.0 °F 67% 29.81 in 10.0 mi WNW 8.1 mph - N/A   Clear
9:51 PM 55.9 °F 46.0 °F 69% 29.82 in 10.0 mi West 4.6 mph - N/A   Clear
10:51 PM 55.0 °F 45.0 °F 69% 29.82 in 10.0 mi West 4.6 mph - N/A   Clear
11:51 PM 55.0 °F 45.0 °F 69% 29.82 in 10.0 mi West 6.9 mph - N/A   Clear